GFSNIL_prec_precacc12_099.txt.gz
Total_Precipitation_Accumulation
0.00 0.01 0.00 0.00 0.00 0.00 0.01 0.04 0.08 0.16 0.27 0.28 0.30 0.23 0.12 0.04 0.01 0.03 0.01 0.02 0.01 0.02
0.01 0.00 0.00 0.00 0.00 0.00 0.00 0.04 0.07 0.06 0.12 0.20 0.24 0.20 0.18 0.13 0.03 0.01 0.01 0.00 0.02 0.05
0.00 0.00 0.00 0.00 0.00 0.00 0.00 0.01 0.03 0.02 0.04 0.08 0.12 0.11 0.10 0.06 0.05 0.03 0.02 0.02 0.05 0.13
0.01 0.00 0.00 0.00 0.00 0.00 0.00 0.00 0.00 0.00 0.01 0.05 0.06 0.07 0.07 0.03 0.04 0.04 0.04 0.13 0.18 0.10
0.00 0.00 0.00 0.00 0.00 0.00 0.00 0.00 0.00 0.00 0.00 0.01 0.04 0.05 0.05 0.06 0.07 0.06 0.05 0.07 0.15 0.05
0.00 0.00 0.00 0.00 0.00 0.00 0.00 0.00 0.00 0.00 0.00 0.00 0.00 0.01 0.00 0.01 0.02 0.04 0.03 0.05 0.05 0.03
0.00 0.00 0.00 0.00 0.00 0.01 0.00 0.00 0.00 0.00 0.00 0.00 0.00 0.00 0.00 0.00 0.01 0.01 0.01 0.01 0.04 0.03
0.00 0.00 0.00 0.00 0.00 0.00 0.01 0.00 0.00 0.00 0.00 0.00 0.00 0.00 0.00 0.01 0.00 0.00 0.00 0.01 0.02 0.02
0.00 0.00 0.00 0.00 0.00 0.00 0.01 0.00 0.00 0.00 0.00 0.00 0.00 0.00 0.00 0.00 0.02 0.05 0.03 0.02 0.01 0.02
0.03 0.01 0.00 0.00 0.00 0.00 0.00 0.00 0.00 0.00 0.00 0.00 0.01 0.00 0.00 0.00 0.01 0.02 0.05 0.06 0.08 0.11
0.11 0.08 0.04 0.01 0.00 0.01 0.00 0.00 0.00 0.00 0.00 0.00 0.00 0.00 0.00 0.01 0.04 0.06 0.09 0.10 0.11 0.14
0.16 0.12 0.10 0.08 0.08 0.03 0.02 0.01 0.01 0.01 0.00 0.01 0.01 0.04 0.03 0.05 0.07 0.13 0.15 0.14 0.17 0.23
0.15 0.11 0.09 0.13 0.09 0.08 0.05 0.03 0.04 0.04 0.02 0.05 0.04 0.09 0.08 0.07 0.06 0.13 0.14 0.13 0.16 0.33
0.17 0.14 0.10 0.13 0.09 0.08 0.07 0.09 0.13 0.14 0.12 0.09 0.13 0.13 0.16 0.11 0.07 0.10 0.14 0.17 0.20 0.32

GFSNIL_prec_precacc12_105.txt.gz
Total_Precipitation_Accumulation
0.00 0.00 0.00 0.00 0.00 0.00 0.01 0.04 0.08 0.18 0.27 0.39 0.61 0.47 0.25 0.10 0.05 0.03 0.02 0.02 0.01 0.01
0.00 0.00 0.00 0.00 0.00 0.00 0.00 0.04 0.07 0.08 0.16 0.29 0.48 0.52 0.49 0.33 0.15 0.10 0.09 0.05 0.03 0.01
0.00 0.00 0.00 0.00 0.00 0.00 0.00 0.02 0.05 0.03 0.05 0.12 0.21 0.25 0.27 0.30 0.24 0.20 0.14 0.11 0.09 0.06
0.00 0.00 0.00 0.00 0.00 0.00 0.00 0.00 0.01 0.01 0.01 0.04 0.09 0.14 0.15 0.09 0.10 0.14 0.12 0.13 0.13 0.07
0.00 0.00 0.00 0.00 0.00 0.00 0.00 0.00 0.00 0.00 0.00 0.01 0.03 0.05 0.06 0.05 0.04 0.03 0.03 0.04 0.05 0.03
0.00 0.00 0.00 0.00 0.00 0.00 0.00 0.00 0.00 0.00 0.00 0.01 0.02 0.03 0.04 0.03 0.02 0.02 0.03 0.03 0.03 0.01
0.00 0.00 0.00 0.00 0.00 0.00 0.00 0.00 0.00 0.00 0.00 0.00 0.00 0.01 0.01 0.02 0.01 0.01 0.02 0.01 0.01 0.01
0.00 0.00 0.00 0.00 0.00 0.00 0.00 0.00 0.00 0.00 0.00 0.00 0.00 0.00 0.01 0.00 0.00 0.00 0.00 0.00 0.00 0.00
0.01 0.00 0.00 0.00 0.00 0.00 0.00 0.00 0.00 0.00 0.00 0.00 0.00 0.00 0.00 0.00 0.00 0.00 0.00 0.00 0.01 0.00
0.08 0.02 0.01 0.00 0.00 0.00 0.00 0.00 0.00 0.00 0.00 0.00 0.00 0.00 0.00 0.00 0.00 0.00 0.01 0.02 0.02 0.01
0.14 0.09 0.05 0.02 0.01 0.01 0.01 0.00 0.00 0.00 0.00 0.00 0.00 0.00 0.00 0.00 0.00 0.00 0.01 0.02 0.01 0.01
0.20 0.15 0.11 0.10 0.09 0.04 0.02 0.01 0.01 0.01 0.00 0.00 0.00 0.02 0.01 0.01 0.01 0.02 0.02 0.02 0.03 0.03
0.14 0.12 0.10 0.13 0.12 0.11 0.07 0.05 0.04 0.04 0.02 0.03 0.01 0.04 0.03 0.03 0.03 0.05 0.06 0.05 0.08 0.21
0.15 0.12 0.12 0.16 0.13 0.11 0.11 0.12 0.14 0.15 0.11 0.07 0.11 0.09 0.13 0.09 0.06 0.06 0.09 0.16 0.18 0.28

GFSNIL_prec_precacc12_108.txt.gz
Total_Precipitation_Accumulation
0.00 0.00 0.00 0.00 0.00 0.00 0.01 0.03 0.06 0.16 0.24 0.36 0.59 0.48 0.28 0.13 0.09 0.07 0.05 0.05 0.02 0.01
0.00 0.00 0.00 0.00 0.00 0.00 0.00 0.05 0.08 0.08 0.16 0.28 0.49 0.54 0.53 0.37 0.18 0.11 0.09 0.08 0.05 0.03
0.00 0.00 0.00 0.00 0.00 0.00 0.00 0.02 0.05 0.04 0.05 0.11 0.22 0.26 0.29 0.35 0.31 0.25 0.18 0.14 0.12 0.09
0.00 0.00 0.00 0.00 0.00 0.00 0.00 0.00 0.02 0.02 0.01 0.05 0.10 0.17 0.17 0.14 0.14 0.15 0.13 0.14 0.14 0.12
0.00 0.00 0.00 0.00 0.00 0.00 0.00 0.00 0.00 0.01 0.00 0.02 0.05 0.08 0.10 0.10 0.12 0.07 0.04 0.03 0.04 0.06
0.00 0.00 0.00 0.00 0.00 0.00 0.00 0.00 0.00 0.00 0.00 0.01 0.03 0.03 0.05 0.05 0.06 0.08 0.05 0.04 0.03 0.02
0.04 0.00 0.00 0.00 0.00 0.00 0.00 0.00 0.00 0.00 0.00 0.00 0.00 0.01 0.01 0.02 0.01 0.02 0.03 0.02 0.02 0.03
0.02 0.00 0.00 0.00 0.00 0.00 0.00 0.00 0.00 0.00 0.00 0.00 0.00 0.00 0.01 0.01 0.00 0.00 0.00 0.00 0.00 0.00
0.01 0.00 0.00 0.00 0.00 0.00 0.00 0.00 0.00 0.00 0.00 0.00 0.00 0.01 0.01 0.01 0.01 0.00 0.00 0.00 0.00 0.00
0.07 0.03 0.01 0.00 0.00 0.00 0.00 0.00 0.00 0.00 0.00 0.00 0.00 0.00 0.00 0.00 0.01 0.01 0.01 0.00 0.00 0.01
0.10 0.05 0.04 0.02 0.01 0.00 0.00 0.00 0.00 0.00 0.00 0.00 0.00 0.01 0.00 0.00 0.00 0.01 0.00 0.00 0.00 0.00
0.16 0.11 0.08 0.08 0.08 0.04 0.01 0.00 0.00 0.00 0.00 0.00 0.00 0.02 0.01 0.00 0.00 0.01 0.01 0.01 0.02 0.03
0.15 0.13 0.10 0.10 0.11 0.10 0.06 0.04 0.02 0.03 0.02 0.03 0.01 0.03 0.03 0.03 0.01 0.02 0.02 0.02 0.03 0.11
0.06 0.07 0.06 0.09 0.12 0.12 0.10 0.10 0.11 0.12 0.09 0.08 0.11 0.10 0.13 0.09 0.06 0.03 0.06 0.14 0.16 0.21

GFSNIL_prec_precacc12_111.txt.gz
Total_Precipitation_Accumulation
0.00 0.00 0.00 0.00 0.00 0.00 0.00 0.00 0.01 0.05 0.04 0.15 0.35 0.33 0.22 0.12 0.09 0.10 0.12 0.12 0.08 0.08
0.00 0.00 0.00 0.00 0.00 0.00 0.00 0.00 0.01 0.04 0.08 0.15 0.31 0.39 0.40 0.29 0.18 0.13 0.12 0.11 0.11 0.09
0.00 0.00 0.00 0.00 0.00 0.00 0.00 0.01 0.02 0.03 0.03 0.07 0.17 0.22 0.25 0.34 0.31 0.28 0.25 0.20 0.17 0.14
0.00 0.00 0.00 0.00 0.00 0.00 0.00 0.00 0.02 0.03 0.01 0.02 0.07 0.16 0.19 0.16 0.17 0.24 0.30 0.29 0.25 0.20
0.00 0.00 0.00 0.00 0.00 0.00 0.00 0.00 0.00 0.01 0.01 0.01 0.03 0.07 0.11 0.13 0.16 0.12 0.15 0.17 0.14 0.15
0.01 0.01 0.00 0.00 0.00 0.00 0.00 0.00 0.00 0.01 0.01 0.01 0.05 0.05 0.07 0.09 0.10 0.17 0.17 0.17 0.13 0.09
0.07 0.05 0.02 0.00 0.00 0.00 0.00 0.00 0.00 0.00 0.01 0.00 0.00 0.01 0.02 0.03 0.04 0.06 0.10 0.11 0.09 0.08
0.09 0.04 0.02 0.00 0.00 0.00 0.00 0.00 0.00 0.00 0.00 0.00 0.00 0.00 0.01 0.01 0.00 0.00 0.01 0.02 0.03 0.02
0.13 0.07 0.02 0.00 0.00 0.00 0.00 0.00 0.00 0.00 0.00 0.00 0.00 0.01 0.01 0.01 0.01 0.00 0.00 0.00 0.00 0.01
0.18 0.07 0.02 0.00 0.00 0.00 0.00 0.00 0.00 0.00 0.00 0.00 0.00 0.00 0.00 0.00 0.01 0.01 0.01 0.00 0.00 0.01
0.11 0.02 0.01 0.01 0.01 0.00 0.00 0.00 0.00 0.00 0.00 0.00 0.00 0.01 0.00 0.00 0.00 0.01 0.01 0.00 0.00 0.00
0.15 0.05 0.01 0.01 0.01 0.01 0.00 0.00 0.00 0.00 0.00 0.00 0.00 0.02 0.01 0.00 0.00 0.01 0.01 0.01 0.02 0.02
0.21 0.14 0.06 0.03 0.04 0.03 0.03 0.02 0.01 0.01 0.01 0.03 0.01 0.03 0.02 0.02 0.00 0.00 0.02 0.04 0.04 0.07
0.25 0.17 0.10 0.08 0.10 0.09 0.09 0.08 0.07 0.09 0.07 0.07 0.09 0.08 0.09 0.06 0.04 0.02 0.04 0.11 0.14 0.19

GFSNIL_prec_precacc12_114.txt.gz
Total_Precipitation_Accumulation
0.00 0.00 0.00 0.00 0.00 0.00 0.00 0.00 0.01 0.02 0.01 0.02 0.11 0.11 0.08 0.06 0.07 0.09 0.12 0.15 0.16 0.24
0.00 0.00 0.00 0.00 0.00 0.00 0.00 0.00 0.01 0.02 0.01 0.01 0.05 0.16 0.23 0.16 0.07 0.08 0.09 0.11 0.13 0.15
0.00 0.00 0.00 0.00 0.00 0.00 0.00 0.00 0.01 0.03 0.01 0.02 0.06 0.08 0.13 0.18 0.14 0.14 0.17 0.18 0.19 0.19
0.00 0.00 0.00 0.01 0.00 0.00 0.00 0.00 0.01 0.02 0.01 0.01 0.04 0.12 0.15 0.13 0.12 0.17 0.27 0.28 0.28 0.28
0.00 0.01 0.01 0.01 0.00 0.00 0.00 0.00 0.00 0.01 0.01 0.01 0.02 0.04 0.09 0.13 0.17 0.14 0.18 0.19 0.19 0.26
0.01 0.02 0.02 0.02 0.00 0.00 0.00 0.00 0.00 0.01 0.01 0.01 0.03 0.03 0.06 0.08 0.09 0.18 0.22 0.24 0.17 0.16
0.09 0.07 0.05 0.02 0.00 0.00 0.00 0.00 0.00 0.00 0.01 0.00 0.00 0.01 0.02 0.03 0.04 0.08 0.15 0.23 0.19 0.17
0.11 0.07 0.05 0.03 0.01 0.00 0.00 0.00 0.00 0.00 0.00 0.00 0.00 0.00 0.01 0.01 0.00 0.01 0.02 0.06 0.07 0.10
0.16 0.16 0.11 0.05 0.02 0.00 0.00 0.00 0.00 0.00 0.00 0.00 0.00 0.01 0.01 0.01 0.01 0.00 0.00 0.01 0.01 0.05
0.21 0.20 0.15 0.09 0.04 0.02 0.01 0.00 0.00 0.00 0.00 0.00 0.00 0.00 0.00 0.00 0.01 0.01 0.01 0.00 0.00 0.01
0.19 0.17 0.16 0.10 0.06 0.02 0.01 0.00 0.00 0.00 0.00 0.00 0.00 0.01 0.00 0.00 0.00 0.01 0.01 0.00 0.00 0.00
0.27 0.16 0.10 0.06 0.03 0.01 0.01 0.01 0.01 0.00 0.00 0.00 0.00 0.01 0.01 0.00 0.00 0.02 0.02 0.01 0.02 0.03
0.29 0.21 0.11 0.05 0.04 0.03 0.03 0.02 0.02 0.01 0.01 0.03 0.01 0.02 0.02 0.02 0.00 0.00 0.02 0.05 0.04 0.07
0.42 0.23 0.14 0.09 0.07 0.08 0.08 0.07 0.07 0.09 0.06 0.06 0.07 0.06 0.07 0.04 0.03 0.01 0.02 0.08 0.14 0.19

GFSNIL_prec_precacc12_117.txt.gz
Total_Precipitation_Accumulation
0.01 0.01 0.00 0.01 0.01 0.00 0.00 0.01 0.02 0.02 0.01 0.01 0.01 0.03 0.04 0.04 0.05 0.08 0.11 0.14 0.16 0.26
0.00 0.00 0.01 0.01 0.01 0.01 0.01 0.01 0.01 0.03 0.02 0.01 0.02 0.03 0.04 0.05 0.05 0.05 0.05 0.08 0.12 0.17
0.00 0.00 0.00 0.01 0.01 0.01 0.01 0.01 0.01 0.03 0.01 0.02 0.03 0.04 0.04 0.07 0.09 0.10 0.13 0.11 0.12 0.16
0.00 0.00 0.00 0.01 0.01 0.01 0.01 0.00 0.01 0.02 0.01 0.02 0.02 0.05 0.06 0.09 0.09 0.14 0.20 0.19 0.20 0.24
0.00 0.01 0.02 0.01 0.01 0.02 0.01 0.01 0.00 0.01 0.01 0.01 0.03 0.04 0.07 0.10 0.15 0.13 0.16 0.18 0.19 0.26
0.04 0.04 0.03 0.03 0.02 0.02 0.01 0.01 0.00 0.01 0.00 0.01 0.04 0.03 0.04 0.06 0.08 0.17 0.21 0.22 0.16 0.17
0.10 0.09 0.06 0.05 0.04 0.03 0.02 0.01 0.00 0.01 0.01 0.00 0.01 0.02 0.02 0.03 0.03 0.07 0.14 0.23 0.20 0.20
0.12 0.08 0.07 0.06 0.06 0.05 0.02 0.01 0.00 0.01 0.00 0.01 0.01 0.01 0.01 0.01 0.01 0.01 0.03 0.06 0.09 0.16
0.17 0.17 0.13 0.09 0.08 0.07 0.04 0.01 0.01 0.01 0.01 0.01 0.01 0.02 0.01 0.00 0.01 0.01 0.01 0.01 0.03 0.09
0.22 0.22 0.20 0.13 0.10 0.10 0.06 0.02 0.01 0.01 0.01 0.00 0.00 0.01 0.01 0.01 0.01 0.01 0.01 0.00 0.01 0.02
0.25 0.22 0.26 0.18 0.14 0.11 0.07 0.05 0.02 0.01 0.01 0.01 0.01 0.00 0.01 0.01 0.01 0.01 0.01 0.00 0.00 0.00
0.27 0.19 0.23 0.21 0.18 0.13 0.09 0.06 0.04 0.01 0.01 0.01 0.01 0.01 0.01 0.00 0.00 0.02 0.02 0.01 0.03 0.03
0.35 0.25 0.23 0.15 0.16 0.18 0.10 0.06 0.04 0.01 0.02 0.04 0.01 0.02 0.01 0.02 0.00 0.00 0.02 0.04 0.03 0.06
0.59 0.37 0.27 0.19 0.15 0.12 0.09 0.08 0.07 0.07 0.05 0.05 0.05 0.04 0.04 0.03 0.01 0.00 0.01 0.03 0.08 0.13

GFSNIL_prec_precacc12_120.txt.gz
Total_Precipitation_Accumulation
0.01 0.01 0.01 0.01 0.01 0.01 0.00 0.01 0.02 0.03 0.02 0.02 0.02 0.02 0.02 0.02 0.02 0.04 0.08 0.12 0.16 0.25
0.00 0.00 0.01 0.01 0.02 0.02 0.01 0.01 0.01 0.02 0.02 0.02 0.02 0.02 0.02 0.02 0.03 0.04 0.04 0.05 0.09 0.16
0.00 0.00 0.00 0.01 0.01 0.02 0.01 0.01 0.01 0.02 0.02 0.02 0.03 0.04 0.03 0.02 0.02 0.04 0.09 0.08 0.09 0.12
0.00 0.00 0.00 0.01 0.01 0.02 0.01 0.01 0.02 0.03 0.02 0.02 0.02 0.04 0.05 0.04 0.04 0.10 0.19 0.16 0.16 0.19
0.00 0.01 0.02 0.02 0.01 0.02 0.03 0.01 0.02 0.03 0.02 0.01 0.01 0.02 0.04 0.06 0.07 0.08 0.15 0.18 0.18 0.23
0.03 0.04 0.04 0.03 0.03 0.03 0.04 0.02 0.01 0.03 0.03 0.01 0.03 0.03 0.03 0.04 0.05 0.12 0.18 0.21 0.15 0.16
0.07 0.09 0.09 0.08 0.07 0.06 0.04 0.02 0.01 0.02 0.02 0.01 0.01 0.02 0.02 0.03 0.04 0.07 0.13 0.22 0.19 0.17
0.10 0.08 0.07 0.07 0.08 0.06 0.04 0.03 0.01 0.03 0.02 0.01 0.01 0.01 0.01 0.01 0.03 0.03 0.05 0.07 0.10 0.18
0.16 0.17 0.14 0.10 0.09 0.10 0.09 0.07 0.06 0.02 0.02 0.01 0.01 0.02 0.02 0.01 0.01 0.02 0.03 0.03 0.04 0.11
0.22 0.23 0.21 0.14 0.11 0.12 0.13 0.10 0.09 0.07 0.02 0.00 0.00 0.01 0.02 0.02 0.00 0.01 0.02 0.01 0.01 0.03
0.25 0.23 0.28 0.20 0.16 0.14 0.16 0.16 0.11 0.08 0.02 0.01 0.01 0.01 0.02 0.02 0.01 0.01 0.01 0.01 0.01 0.00
0.26 0.22 0.30 0.29 0.24 0.21 0.19 0.24 0.21 0.10 0.02 0.01 0.01 0.01 0.01 0.01 0.00 0.01 0.01 0.01 0.01 0.02
0.31 0.28 0.30 0.24 0.37 0.41 0.28 0.21 0.19 0.08 0.02 0.03 0.00 0.01 0.01 0.01 0.00 0.01 0.02 0.04 0.04 0.06
0.61 0.46 0.42 0.36 0.29 0.42 0.36 0.23 0.20 0.15 0.05 0.03 0.05 0.02 0.02 0.03 0.00 0.00 0.00 0.02 0.06 0.09

GFSNIL_prec_precacc12_123.txt.gz
Total_Precipitation_Accumulation
0.01 0.00 0.01 0.01 0.01 0.01 0.01 0.02 0.04 0.05 0.05 0.04 0.03 0.03 0.03 0.02 0.01 0.02 0.02 0.05 0.10 0.19
0.00 0.00 0.01 0.01 0.02 0.02 0.01 0.00 0.01 0.02 0.03 0.03 0.03 0.04 0.04 0.03 0.03 0.03 0.03 0.02 0.04 0.10
0.00 0.00 0.00 0.01 0.01 0.02 0.01 0.00 0.01 0.02 0.02 0.03 0.03 0.03 0.04 0.04 0.03 0.02 0.02 0.03 0.03 0.07
0.00 0.00 0.00 0.01 0.01 0.02 0.01 0.01 0.02 0.02 0.02 0.02 0.03 0.03 0.03 0.03 0.03 0.02 0.02 0.03 0.05 0.09
0.00 0.01 0.02 0.02 0.01 0.02 0.03 0.01 0.02 0.02 0.02 0.02 0.02 0.02 0.03 0.04 0.04 0.05 0.05 0.05 0.08 0.14
0.03 0.03 0.04 0.03 0.03 0.03 0.04 0.02 0.02 0.03 0.03 0.02 0.02 0.02 0.02 0.02 0.02 0.04 0.07 0.08 0.06 0.10
0.03 0.04 0.07 0.08 0.08 0.07 0.05 0.03 0.02 0.02 0.03 0.02 0.02 0.02 0.03 0.02 0.02 0.03 0.06 0.13 0.12 0.12
0.03 0.04 0.05 0.07 0.08 0.07 0.06 0.03 0.02 0.03 0.03 0.02 0.03 0.04 0.03 0.02 0.03 0.03 0.04 0.06 0.08 0.16
0.05 0.10 0.12 0.10 0.09 0.10 0.10 0.07 0.07 0.03 0.03 0.05 0.03 0.04 0.04 0.02 0.01 0.02 0.03 0.03 0.05 0.12
0.09 0.17 0.20 0.14 0.11 0.13 0.14 0.12 0.10 0.09 0.04 0.02 0.04 0.06 0.04 0.02 0.00 0.01 0.02 0.02 0.02 0.05
0.18 0.21 0.28 0.20 0.16 0.15 0.17 0.18 0.13 0.11 0.08 0.04 0.03 0.07 0.05 0.03 0.01 0.01 0.01 0.02 0.02 0.01
0.21 0.21 0.30 0.29 0.25 0.23 0.22 0.26 0.25 0.15 0.10 0.07 0.04 0.04 0.03 0.02 0.00 0.01 0.01 0.01 0.02 0.03
0.22 0.23 0.29 0.25 0.38 0.43 0.32 0.27 0.24 0.21 0.17 0.20 0.09 0.04 0.03 0.02 0.00 0.01 0.01 0.01 0.01 0.05
0.40 0.34 0.37 0.35 0.29 0.44 0.43 0.30 0.29 0.30 0.26 0.21 0.19 0.13 0.06 0.03 0.00 0.00 0.00 0.02 0.03 0.05